Location: Dackenheim
(49.5215°N, 8.1854°E)
Time: 22:25:44
(UTC+00:00)

DUCHIFAT 1 - Visible Passes

Search period start: 12 March 2026 00:00
Search period end: 22 March 2026 00:00
Orbit: 412 x 420 km, 98.1° (Epoch: 12 March)

Date Brightness Start Highest point End Pass type
(mag) Time Alt. Az. Time Alt. Az. Time Alt. Az.
12 Mar ? 19:22:25 66° S 19:22:49 88° WSW 19:26:01 10° NNW visible
13 Mar ? 18:36:31 20° E 18:37:38 24° ENE 18:40:17 10° N visible
13 Mar ? 20:09:27 22° W 20:09:37 22° W 20:12:11 10° NW visible
14 Mar ? 19:23:27 57° S 19:24:02 87° WSW 19:27:14 10° NNW visible
15 Mar ? 18:37:21 19° ESE 18:38:37 24° ENE 18:41:16 10° N visible
15 Mar ? 20:10:16 22° WSW 20:10:35 22° W 20:13:10 10° NW visible
16 Mar ? 19:24:03 50° SSE 19:24:47 88° WSW 19:27:59 10° NNW visible
17 Mar ? 18:37:43 17° ESE 18:39:10 24° ENE 18:41:48 10° N visible
17 Mar ? 20:10:37 21° WSW 20:11:06 22° W 20:13:42 10° NW visible
18 Mar ? 19:24:11 44° SSE 19:25:05 90° S 19:28:18 10° NNW visible
19 Mar ? 18:37:38 16° ESE 18:39:16 23° ENE 18:41:52 10° NNE visible
19 Mar ? 20:10:31 21° WSW 20:11:10 23° W 20:13:47 10° NW visible
20 Mar ? 19:23:52 39° SSE 19:24:57 87° ENE 19:28:09 10° NNW visible
21 Mar ? 18:37:06 14° ESE 18:38:55 23° ENE 18:41:28 10° NNE visible
21 Mar ? 20:09:58 21° WSW 20:10:47 24° W 20:13:26 10° NW visible
